Mukilteo, WA

6:30 PM PST on December 10, 2016 (GMT -0800)
Snohomish County

Weather History for KPAE - June, 2014

Change the Weather History Date:

Tuesday, June 17, 2014

  Actual Average Record
Temperature  
Mean Temperature 57 °F -  
Max Temperature 64 °F 67 °F 84 °F (1969)
Min Temperature 50 °F 51 °F 41 °F (1971)
Degree Days  
Heating Degree Days 8    
Growing Degree Days 7 (Base 50)    
Moisture  
Dew Point 49 °F    
Average Humidity 79    
Maximum Humidity 94    
Minimum Humidity 60    
Precipitation  
Precipitation 0.04 in - - ()
Sea Level Pressure  
Sea Level Pressure 30.09 in    
Wind  
Wind Speed 6 mph (South)    
Max Wind Speed 10 mph    
Max Gust Speed -    
Visibility 10 miles    
Events Rain    
Averages and records for this station are not official NWS values.
T = Trace of Precipitation, MM = Missing Value Source: NWS Daily Summary

Daily Weather History Graph

Daily Weather History Graph

Search for Another Location

Airport or City:

Trip Planner

Search our weather history database for the weather conditions in past years. The results will help you decide how hot, cold, wet, or windy it might be!

Date:

Astronomy

Jun. 17, 2014 Rise Set
Actual Time 5:09 AM PDT 9:10 PM PDT
Civil Twilight 4:28 AM PDT 9:52 PM PDT
Nautical Twilight 3:31 AM PDT 10:49 PM PDT
Astronomical Twilight 1:55 AM PDT 12:25 AM PDT
Moon No Moon Rise 10:51 AM PDT (6/17)
Length of Visible Light 17h 23m
Length of Day
16h 01m
Waning Gibbous, 72% of the Moon is Illuminated
Jun 17
Waning Gibbous
Jun 19
Last Quarter
Jun 27
New
Jul 5
First Quarter
Jul 12
Full

Hourly Weather History & Observations

Time (PDT) Temp. Dew Point Humidity Pressure Visibility Wind Dir Wind Speed Gust Speed Precip Events Conditions
12:53 AM 55.0 °F 46.0 °F 72% 29.99 in 10.0 mi ESE 3.5 mph - N/A   Overcast
1:53 AM 54.0 °F 45.0 °F 72% 30.00 in 10.0 mi Variable 3.5 mph - N/A   Overcast
2:53 AM 52.0 °F 46.9 °F 83% 30.02 in 9.0 mi Variable 4.6 mph - 0.01 in Rain Light Rain
3:53 AM 51.1 °F 48.0 °F 89% 30.03 in 7.0 mi SSE 6.9 mph - 0.03 in Rain Light Rain
4:08 AM 51.1 °F 48.0 °F 89% 30.03 in 7.0 mi SSE 9.2 mph - 0.00 in Rain Light Rain
4:53 AM 50.0 °F 48.0 °F 93% 30.04 in 10.0 mi SSE 10.4 mph - 0.00 in   Overcast
5:17 AM 50.0 °F 48.2 °F 94% 30.05 in 10.0 mi SSE 9.2 mph - N/A   Overcast
5:53 AM 50.0 °F 48.0 °F 93% 30.06 in 10.0 mi South 8.1 mph - N/A   Overcast
6:07 AM 50.0 °F 48.0 °F 93% 30.06 in 7.0 mi South 8.1 mph - 0.00 in Rain Light Rain
6:36 AM 51.1 °F 48.9 °F 92% 30.07 in 9.0 mi South 5.8 mph - 0.00 in   Overcast
6:53 AM 51.1 °F 48.9 °F 92% 30.07 in 8.0 mi South 6.9 mph - 0.00 in   Overcast
7:53 AM 51.1 °F 48.0 °F 89% 30.07 in 10.0 mi SSW 6.9 mph - N/A   Overcast
8:53 AM 52.0 °F 48.0 °F 86% 30.10 in 10.0 mi South 6.9 mph - N/A   Overcast
9:53 AM 52.0 °F 48.0 °F 86% 30.10 in 9.0 mi South 6.9 mph - N/A   Overcast
10:53 AM 53.1 °F 48.9 °F 86% 30.12 in 10.0 mi SSE 5.8 mph - N/A   Overcast
10:58 AM 53.6 °F 48.2 °F 82% 30.11 in 10.0 mi SSE 8.1 mph - N/A   Overcast
11:53 AM 54.0 °F 50.0 °F 86% 30.12 in 10.0 mi West 4.6 mph - N/A   Overcast
12:53 PM 55.0 °F 50.0 °F 83% 30.12 in 10.0 mi SW 3.5 mph - N/A   Overcast
1:08 PM 57.0 °F 50.0 °F 77% 30.12 in 10.0 mi Variable 4.6 mph - N/A   Overcast
1:53 PM 59.0 °F 48.9 °F 69% 30.12 in 10.0 mi SW 3.5 mph - N/A   Mostly Cloudy
2:02 PM 60.1 °F 48.9 °F 67% 30.12 in 10.0 mi Calm Calm - N/A   Mostly Cloudy
2:53 PM 60.1 °F 48.9 °F 67% 30.12 in 10.0 mi Variable 3.5 mph - N/A   Overcast
3:53 PM 61.0 °F 48.9 °F 64% 30.12 in 10.0 mi South 4.6 mph - N/A   Mostly Cloudy
4:53 PM 63.0 °F 50.0 °F 63% 30.12 in 10.0 mi WSW 8.1 mph - N/A   Overcast
5:53 PM 64.0 °F 50.0 °F 60% 30.12 in 10.0 mi WSW 10.4 mph - N/A   Clear
6:53 PM 63.0 °F 50.0 °F 63% 30.12 in 10.0 mi South 8.1 mph - N/A   Mostly Cloudy
7:53 PM 61.0 °F 50.0 °F 67% 30.12 in 10.0 mi South 8.1 mph - N/A   Overcast
8:00 PM 61.0 °F 50.0 °F 67% 30.12 in 10.0 mi SSW 8.1 mph - N/A   Overcast
8:53 PM 60.1 °F 51.1 °F 72% 30.12 in 10.0 mi SSE 6.9 mph - N/A   Overcast
9:53 PM 59.0 °F 50.0 °F 72% 30.13 in 10.0 mi SSW 5.8 mph - N/A   Overcast
10:53 PM 57.9 °F 48.0 °F 70% 30.13 in 10.0 mi SSW 6.9 mph - N/A   Overcast
11:53 PM 55.9 °F 48.0 °F 75% 30.13 in 10.0 mi Calm Calm - N/A   Overcast